Location: Alpha Ridge Park
(39.3209°N, 76.9128°W)
Time: 10:30:05
(UTC-04:00)

Vanguard 2 Rocket - Pass Details

Date: 27 May 2019
Orbit: 554 x 3326 km, 32.9° (Epoch: 15 June)

Event Time Altitude Azimuth Distance (km) Brightness Sun altitude
Rises 10:19:21 0° 276° (W) 6,603 10.9 50.5°
Reaches altitude 10° 10:24:31 10° 272° (W) 5,194 10.5 51.4°
Maximum altitude 10:37:22 47° 205° (SSW) 2,103 9.3 53.8°
Drops below altitude 10° 10:44:48 10° 134° (SE) 3,060 10.3 55.2°
Sets 10:47:05 0° 127° (SE) 3,754 10.6 55.6°
